• în Republica Moldova
  • Lista ţărilor
  • Pe 7 zile
  • Temperatura apei
  • Hartă satelitară
  • Meteo pe hartă
  • Widget-uri
  • user-avatar
    Intrare

    Meteo pe oră la Hmelevec-Kryukovo

    Astăzi, 16 August, Joi

    Timp Temperatura Precipitaţii Vânt Presiune Umiditate
    00:00 +20°C° 0,1 mm 2 m/s 741 mmHg 84%
    01:00 +20°C° 0,1 mm 2 m/s 741 mmHg 87%
    02:00 +19°C° 0,1 mm 2 m/s 741 mmHg 89%
    03:00 +18°C° 0 mm 2 m/s 741 mmHg 92%
    04:00 +18°C° 0 mm 2 m/s 742 mmHg 93%
    05:00 +18°C° 0 mm 2 m/s 742 mmHg 93%
    06:00 +18°C° 0 mm 2 m/s 742 mmHg 94%
    07:00 +19°C° 0 mm 2 m/s 742 mmHg 88%
    08:00 +21°C° 0 mm 2 m/s 742 mmHg 82%
    09:00 +22°C° 0 mm 3 m/s 743 mmHg 75%
    10:00 +24°C° 0 mm 3 m/s 743 mmHg 69%
    11:00 +25°C° 0 mm 3 m/s 743 mmHg 64%
    12:00 +26°C° 0 mm 3 m/s 743 mmHg 58%
    13:00 +26°C° 0,1 mm 3 m/s 743 mmHg 58%
    14:00 +27°C° 0,1 mm 3 m/s 743 mmHg 58%
    15:00 +27°C° 0,1 mm 3 m/s 743 mmHg 58%
    16:00 +26°C° 0,7 mm 3 m/s 743 mmHg 63%
    17:00 +25°C° 0,7 mm 2 m/s 743 mmHg 68%
    18:00 +24°C° 0,7 mm 2 m/s 743 mmHg 73%
    19:00 +23°C° 0,2 mm 2 m/s 744 mmHg 78%
    20:00 +21°C° 0,2 mm 2 m/s 744 mmHg 83%
    21:00 +19°C° 0,2 mm 2 m/s 744 mmHg 88%
    22:00 +19°C° 0 mm 2 m/s 744 mmHg 90%
    23:00 +18°C° 0 mm 2 m/s 744 mmHg 91%

    Mâine, 17 August, Vineri

    Timp Temperatura Precipitaţii Vânt Presiune Umiditate
    00:00 +18°C° 0 mm 2 m/s 745 mmHg 92%
    01:00 +17°C° 0 mm 3 m/s 745 mmHg 93%
    02:00 +17°C° 0 mm 3 m/s 745 mmHg 95%
    03:00 +16°C° 0 mm 3 m/s 745 mmHg 96%
    04:00 +16°C° 0 mm 3 m/s 745 mmHg 96%
    05:00 +16°C° 0 mm 3 m/s 746 mmHg 96%
    06:00 +14°C° 0 mm 3 m/s 746 mmHg 96%
    07:00 +17°C° 0 mm 3 m/s 746 mmHg 90%
    08:00 +18°C° 0 mm 4 m/s 746 mmHg 84%
    09:00 +19°C° 0 mm 4 m/s 747 mmHg 78%
    10:00 +20°C° 0 mm 4 m/s 747 mmHg 73%
    11:00 +21°C° 0 mm 4 m/s 747 mmHg 67%
    12:00 +22°C° 0 mm 4 m/s 747 mmHg 61%
    13:00 +23°C° 0 mm 4 m/s 747 mmHg 59%
    14:00 +23°C° 0 mm 4 m/s 747 mmHg 57%
    15:00 +25°C° 0 mm 4 m/s 747 mmHg 55%
    16:00 +23°C° 0 mm 4 m/s 746 mmHg 58%
    17:00 +24°C° 0 mm 3 m/s 746 mmHg 60%
    18:00 +24°C° 0 mm 3 m/s 746 mmHg 63%
    19:00 +21°C° 0 mm 2 m/s 746 mmHg 66%
    20:00 +19°C° 0 mm 2 m/s 747 mmHg 69%
    21:00 +18°C° 0 mm 2 m/s 747 mmHg 72%
    22:00 +17°C° 0 mm 2 m/s 747 mmHg 73%
    23:00 +17°C° 0 mm 2 m/s 747 mmHg 73%

    Poimâine, 18 August, Sâmbătă

    Timp Temperatura Precipitaţii Vânt Presiune Umiditate
    00:00 +16°C° 0 mm 2 m/s 747 mmHg 74%
    01:00 +16°C° 0 mm 2 m/s 747 mmHg 76%
    02:00 +15°C° 0 mm 2 m/s 747 mmHg 77%
    03:00 +15°C° 0 mm 2 m/s 747 mmHg 79%
    04:00 +15°C° 0 mm 2 m/s 747 mmHg 81%
    05:00 +15°C° 0 mm 2 m/s 748 mmHg 83%
    06:00 +14°C° 0 mm 2 m/s 748 mmHg 85%
    07:00 +16°C° 0 mm 2 m/s 748 mmHg 79%
    08:00 +18°C° 0 mm 2 m/s 748 mmHg 74%
    09:00 +20°C° 0 mm 2 m/s 748 mmHg 68%
    10:00 +21°C° 0 mm 3 m/s 748 mmHg 63%
    11:00 +22°C° 0 mm 3 m/s 748 mmHg 58%
    12:00 +24°C° 0 mm 3 m/s 748 mmHg 53%
    13:00 +24°C° 0 mm 3 m/s 748 mmHg 52%
    14:00 +25°C° 0 mm 3 m/s 748 mmHg 50%
    15:00 +25°C° 0 mm 3 m/s 748 mmHg 49%
    16:00 +25°C° 0 mm 3 m/s 747 mmHg 52%
    17:00 +24°C° 0 mm 2 m/s 747 mmHg 56%
    18:00 +24°C° 0 mm 2 m/s 747 mmHg 59%
    19:00 +21°C° 0 mm 2 m/s 747 mmHg 62%
    20:00 +19°C° 0 mm 2 m/s 747 mmHg 64%
    21:00 +18°C° 0 mm 2 m/s 747 mmHg 67%
    22:00 +17°C° 0 mm 2 m/s 747 mmHg 68%
    23:00 +18°C° 0 mm 1 m/s 748 mmHg 69%

    19 August, Duminică

    Timp Temperatura Precipitaţii Vânt Presiune Umiditate
    00:00 +16°C° 0 mm 1 m/s 748 mmHg 70%
    01:00 +16°C° 0 mm 1 m/s 748 mmHg 71%
    02:00 +15°C° 0 mm 1 m/s 748 mmHg 72%
    03:00 +15°C° 0 mm 2 m/s 748 mmHg 73%
    04:00 +15°C° 0 mm 2 m/s 748 mmHg 74%
    05:00 +15°C° 0 mm 2 m/s 748 mmHg 76%
    06:00 +15°C° 0 mm 2 m/s 748 mmHg 77%
    07:00 +16°C° 0 mm 2 m/s 748 mmHg 73%
    08:00 +18°C° 0 mm 2 m/s 748 mmHg 68%
    09:00 +20°C° 0 mm 3 m/s 748 mmHg 63%
    10:00 +21°C° 0 mm 3 m/s 748 mmHg 60%
    11:00 +22°C° 0 mm 3 m/s 747 mmHg 56%
    12:00 +25°C° 0 mm 4 m/s 747 mmHg 52%
    13:00 +25°C° 0 mm 4 m/s 747 mmHg 51%
    14:00 +25°C° 0 mm 4 m/s 746 mmHg 51%
    15:00 +25°C° 0 mm 4 m/s 746 mmHg 50%
    16:00 +25°C° 0 mm 3 m/s 746 mmHg 54%
    17:00 +25°C° 0 mm 3 m/s 746 mmHg 58%
    18:00 +24°C° 0 mm 2 m/s 745 mmHg 61%
    19:00 +23°C° 0 mm 2 m/s 745 mmHg 64%
    20:00 +20°C° 0 mm 2 m/s 745 mmHg 67%
    21:00 +18°C° 0 mm 2 m/s 745 mmHg 70%
    22:00 +17°C° 0 mm 3 m/s 745 mmHg 71%
    23:00 +17°C° 0 mm 3 m/s 745 mmHg 71%

    20 August, Luni

    Timp Temperatura Precipitaţii Vânt Presiune Umiditate
    00:00 +16°C° 0 mm 3 m/s 745 mmHg 71%
    01:00 +16°C° 0 mm 3 m/s 745 mmHg 72%
    02:00 +16°C° 0 mm 3 m/s 745 mmHg 72%
    03:00 +14°C° 0 mm 3 m/s 745 mmHg 72%
    04:00 +14°C° 0 mm 3 m/s 744 mmHg 73%
    05:00 +14°C° 0 mm 3 m/s 744 mmHg 74%
    06:00 +14°C° 0 mm 3 m/s 744 mmHg 75%
    07:00 +16°C° 0 mm 3 m/s 744 mmHg 72%
    08:00 +18°C° 0 mm 3 m/s 744 mmHg 69%
    09:00 +20°C° 0 mm 4 m/s 745 mmHg 66%
    10:00 +21°C° 0 mm 4 m/s 745 mmHg 61%
    11:00 +23°C° 0 mm 4 m/s 745 mmHg 57%
    12:00 +25°C° 0 mm 4 m/s 744 mmHg 53%
    13:00 +26°C° 0 mm 4 m/s 744 mmHg 52%
    14:00 +26°C° 0 mm 5 m/s 744 mmHg 51%
    15:00 +26°C° 0 mm 5 m/s 744 mmHg 50%
    16:00 +26°C° 0,1 mm 4 m/s 744 mmHg 54%
    17:00 +25°C° 0,1 mm 3 m/s 744 mmHg 58%
    18:00 +25°C° 0,1 mm 3 m/s 744 mmHg 62%
    19:00 +22°C° 0 mm 3 m/s 744 mmHg 65%
    20:00 +21°C° 0 mm 3 m/s 744 mmHg 67%
    21:00 +19°C° 0 mm 3 m/s 744 mmHg 70%
    22:00 +19°C° 0,1 mm 3 m/s 744 mmHg 70%
    23:00 +18°C° 0,1 mm 3 m/s 744 mmHg 71%

    21 August, Marţi

    Timp Temperatura Precipitaţii Vânt Presiune Umiditate
    00:00 +18°C° 0,1 mm 3 m/s 744 mmHg 71%
    01:00 +17°C° 0,3 mm 3 m/s 744 mmHg 74%
    02:00 +17°C° 0,3 mm 3 m/s 743 mmHg 76%
    03:00 +17°C° 0,3 mm 3 m/s 743 mmHg 79%
    04:00 +16°C° 0,2 mm 2 m/s 743 mmHg 81%
    05:00 +16°C° 0,2 mm 2 m/s 744 mmHg 84%
    06:00 +16°C° 0,2 mm 2 m/s 744 mmHg 86%
    07:00 +17°C° 0 mm 2 m/s 744 mmHg 83%
    08:00 +19°C° 0 mm 2 m/s 744 mmHg 80%
    09:00 +20°C° 0 mm 2 m/s 744 mmHg 77%
    10:00 +22°C° 0,1 mm 3 m/s 744 mmHg 73%
    11:00 +24°C° 0,1 mm 3 m/s 744 mmHg 68%
    12:00 +25°C° 0,1 mm 3 m/s 744 mmHg 64%
    13:00 +26°C° 0,1 mm 3 m/s 744 mmHg 62%
    14:00 +26°C° 0,1 mm 3 m/s 744 mmHg 60%
    15:00 +27°C° 0,1 mm 4 m/s 743 mmHg 58%
    16:00 +26°C° 0,1 mm 3 m/s 743 mmHg 61%
    17:00 +26°C° 0,1 mm 3 m/s 743 mmHg 64%
    18:00 +25°C° 0,1 mm 2 m/s 743 mmHg 66%
    19:00 +24°C° 0 mm 2 m/s 743 mmHg 70%
    20:00 +21°C° 0 mm 2 m/s 744 mmHg 75%
    21:00 +20°C° 0 mm 1 m/s 744 mmHg 79%
    22:00 +20°C° 0 mm 1 m/s 744 mmHg 80%
    23:00 +18°C° 0 mm 2 m/s 744 mmHg 82%
    Arată mai mult